Location: ??????
(42.0089°N, 44.3281°E)
Time: 12:23:15
(UTC+00:00)

Cosmos 220 Rocket - Pass Details

Date: 31 May 2022
Orbit: 572 x 614 km, 74.0° (Epoch: 03 July)

Event Time Altitude Azimuth Distance (km) Brightness Sun altitude
Exits shadow 20:05:47 71° 352° (N) 607 4.0 -24.8°
Drops below altitude 10° 20:09:36 10° 18° (NNE) 1,887 7.3 -24.9°
Sets 20:11:49 0° 19° (NNE) 2,792 8.3 -25.0°
